Weather History for Columbia, MO

Change the Weather History Date:

Monday, November 26, 2012

  Actual Average Record
Temperature  
Mean Temperature 33 °F 39 °F  
Max Temperature 42 °F 48 °F 77 °F (1965)
Min Temperature 23 °F 30 °F 6 °F (1898)
Degree Days  
Heating Degree Days 32 26  
Month to date heating degree days 475 512  
Since 1 July heating degree days 872 877  
Cooling Degree Days 0 0  
Month to date cooling degree days 3 0  
Year to date cooling degree days 1896 1247  
Moisture  
Dew Point 24 °F    
Average Humidity 66    
Maximum Humidity 81    
Minimum Humidity 51    
Precipitation  
Precipitation 0.00 in 0.11 in 2.49 in (1985)
Month to date precipitation 0.99 2.82  
Year to date precipitation 29.14 39.75  
Snow  
Snow 0.00 in 0.10 in 7.60 in (1975)
Month to date snowfall 0.0 0.7  
Since 1 July snowfall 0.0 0.7  
Since 1 September snowfall 0.0 0.7  
Snow Depth 0.00 in    
Sea Level Pressure  
Sea Level Pressure 30.26 in    
Wind  
Wind Speed 12 mph (NNE)    
Max Wind Speed 22 mph    
Max Gust Speed 26 mph    
Visibility 10 miles    
Events      
T = Trace of Precipitation, MM = Missing Value Source: NWS Daily Summary

Daily Weather History Graph

Daily Weather History Graph

Search for Another Location

Airport:

Trip Planner

Search our weather history database for the weather conditions in past years. The results will help you decide how hot, cold, wet, or windy it might be!

Date:

Astronomy

Nov. 26, 2012 Rise Set
Actual Time 7:03 AM CST 4:48 PM CST
Civil Twilight 6:34 AM CST 5:17 PM CST
Nautical Twilight 6:01 AM CST 5:50 PM CST
Astronomical Twilight 5:29 AM CST 6:22 PM CST
Moon 3:40 PM CST (11/26) 5:14 AM CST (11/26)
Length of Visible Light 10h 43m
Length of Day
9h 45m
Waxing Gibbous, 97% of the Moon is Illuminated
Nov 26
Waxing Gibbous
Nov 28
Full
Dec 6
Last Quarter
Dec 13
New
Dec 19
First Quarter

Hourly Weather History & Observations

Time (CST) Temp. Windchill Dew Point Humidity Pressure Visibility Wind Dir Wind Speed Gust Speed Precip Events Conditions
12:54 AM 35.1 °F 28.6 °F 27.0 °F 72% 30.06 in 10.0 mi NE 8.1 mph - N/A   Clear
1:54 AM 35.1 °F 27.4 °F 27.0 °F 72% 30.06 in 10.0 mi NE 10.4 mph - N/A   Clear
2:54 AM 34.0 °F 26.6 °F 27.0 °F 75% 30.08 in 10.0 mi NE 9.2 mph - N/A   Clear
3:54 AM 33.1 °F 24.9 °F 27.0 °F 78% 30.09 in 10.0 mi NE 10.4 mph - N/A   Clear
4:54 AM 33.1 °F 24.4 °F 27.0 °F 78% 30.11 in 10.0 mi NNE 11.5 mph - N/A   Clear
5:54 AM 32.0 °F 22.1 °F 25.0 °F 75% 30.14 in 10.0 mi NE 13.8 mph - N/A   Clear
6:54 AM 32.0 °F 24.8 °F 25.0 °F 75% 30.16 in 10.0 mi NE 8.1 mph 18.4 mph N/A   Clear
7:54 AM 33.1 °F 23.4 °F 25.0 °F 72% 30.18 in 10.0 mi NE 13.8 mph - N/A   Clear
8:54 AM 36.0 °F 26.0 °F 25.0 °F 64% 30.21 in 10.0 mi NE 17.3 mph - N/A   Clear
9:54 AM 39.9 °F 32.5 °F 25.0 °F 55% 30.23 in 10.0 mi ENE 12.7 mph - N/A   Clear
10:54 AM 41.0 °F 33.9 °F 25.0 °F 53% 30.25 in 10.0 mi NE 12.7 mph - N/A   Overcast
11:54 AM 41.0 °F 32.8 °F 26.1 °F 55% 30.25 in 10.0 mi NE 16.1 mph - N/A   Overcast
12:54 PM 41.0 °F 32.8 °F 25.0 °F 53% 30.25 in 10.0 mi NNE 16.1 mph - N/A   Overcast
1:54 PM 41.0 °F 31.9 °F 26.1 °F 55% 30.26 in 10.0 mi NNE 19.6 mph 25.3 mph N/A   Overcast
2:54 PM 41.0 °F 32.5 °F 25.0 °F 53% 30.27 in 10.0 mi North 17.3 mph - N/A   Overcast
3:54 PM 37.9 °F 28.5 °F 24.1 °F 57% 30.30 in 10.0 mi North 17.3 mph - N/A   Overcast
4:54 PM 36.0 °F 26.7 °F 25.0 °F 64% 30.33 in 10.0 mi North 15.0 mph - N/A   Overcast
5:54 PM 34.0 °F 24.2 °F 21.9 °F 61% 30.35 in 10.0 mi North 15.0 mph - N/A   Overcast
6:54 PM 32.0 °F 24.8 °F 21.9 °F 66% 30.38 in 10.0 mi NNE 8.1 mph - N/A   Scattered Clouds
7:54 PM 30.9 °F 22.8 °F 23.0 °F 72% 30.40 in 10.0 mi North 9.2 mph - N/A   Mostly Cloudy
8:54 PM 27.0 °F 23.0 °F 21.0 °F 78% 30.41 in 10.0 mi North 3.5 mph - N/A   Clear
9:54 PM 26.1 °F 19.4 °F 19.9 °F 78% 30.42 in 10.0 mi NNW 5.8 mph - N/A   Clear
10:54 PM 26.1 °F 17.6 °F 18.0 °F 71% 30.44 in 10.0 mi NNW 8.1 mph - N/A   Clear
11:54 PM 23.0 °F 14.7 °F 18.0 °F 81% 30.45 in 10.0 mi NNW 6.9 mph - N/A   Clear